Wind_Speed
63 64 64 64 64 64 65 63 62 62 64 63 60 56 52 51 51 51 50 49 49 48 48 46 45 44 44 45 47 50 53 57 60 64 66 64 61 59 59 57 50 44 40 42 44 45 46 45 46 46 48 49 50 51 52 53 53 52 50 49 48 47 46 45 44 41 39 36 33 31 29 27 26 25 25 25 26 27 27 27 27 26 26 26 26 25
62 62 63 63 63 64 66 66 64 64 64 65 63 60 56 53 52 52 50 49 48 48 48 47 45 44 43 44 46 49 52 56 60 64 66 63 59 57 57 54 49 44 43 44 46 46 46 45 45 46 47 49 50 52 53 54 55 55 53 52 51 50 49 47 46 44 42 39 36 34 32 30 28 27 26 26 27 27 28 28 28 28 27 27 27 26
63 63 63 62 63 64 65 66 66 66 66 65 65 64 61 58 55 53 51 49 48 48 48 47 45 44 43 44 45 47 50 55 60 64 65 61 57 55 54 52 49 45 45 46 47 47 46 46 46 46 47 49 51 52 54 55 56 56 56 55 55 53 52 50 48 46 44 41 39 37 35 33 30 28 27 27 27 28 28 29 29 29 28 28 28 27
64 64 64 63 63 64 65 65 66 67 67 67 66 65 64 62 59 56 54 51 50 49 49 47 46 44 44 43 44 46 48 53 58 61 62 59 55 53 53 52 50 47 47 47 47 48 47 47 47 47 47 49 51 53 55 56 57 58 57 57 57 56 54 52 49 47 45 43 41 40 38 36 33 30 28 27 27 28 29 30 30 30 29 28 28 28
66 65 64 64 64 64 65 64 64 66 68 68 67 66 66 65 64 61 57 54 52 51 50 48 47 45 44 44 44 44 46 50 54 57 58 57 54 53 53 52 51 49 48 48 48 49 49 48 48 48 48 49 51 54 56 57 58 58 58 58 58 57 56 54 51 48 46 44 42 42 41 39 35 31 28 28 28 29 29 30 30 30 29 29 28 28
66 65 64 64 64 65 64 63 63 64 66 67 67 67 66 66 66 65 62 59 56 54 52 50 48 46 45 45 44 44 45 47 51 53 54 54 53 53 54 54 52 50 49 49 49 49 49 49 49 49 49 50 52 54 56 58 59 59 59 59 59 58 57 55 53 50 47 45 44 43 43 41 37 32 29 28 28 29 30 30 30 30 29 29 28 28
66 65 64 64 65 65 64 63 63 63 64 66 67 67 67 67 67 67 66 64 61 58 55 52 49 47 46 46 45 45 45 47 49 51 51 51 51 53 56 55 53 51 50 50 50 50 50 50 50 50 50 50 52 55 57 58 59 59 59 59 59 59 58 57 55 52 49 46 45 45 45 43 39 34 30 29 29 29 30 30 31 30 30 29 28 28
66 65 64 65 66 66 65 65 64 63 63 65 66 67 68 68 67 67 68 68 66 62 59 55 52 50 48 48 47 47 46 47 49 50 49 49 50 55 58 57 56 53 50 49 49 49 50 51 51 51 50 51 52 55 57 59 60 60 60 59 59 58 58 58 56 54 51 49 47 46 46 44 40 35 31 29 29 29 30 31 31 31 30 30 29 29
67 66 65 65 66 66 67 67 66 65 64 65 66 68 69 68 67 67 68 70 70 67 64 59 55 52 50 49 49 49 48 48 49 49 48 48 51 57 60 60 58 55 51 49 49 49 50 51 51 51 51 51 52 55 57 59 60 60 60 59 59 58 58 58 57 56 54 51 49 48 47 45 41 36 31 30 29 30 30 31 31 31 31 30 30 29
68 67 66 66 66 67 68 69 69 67 66 65 66 67 68 68 66 66 67 70 72 72 69 65 60 56 52 51 51 51 50 50 49 49 47 49 54 60 62 62 60 57 53 51 50 50 51 51 52 51 51 51 52 55 57 59 60 61 60 59 58 58 58 58 58 57 56 54 51 50 49 46 42 36 32 30 29 30 31 32 32 32 31 31 30 30
68 67 67 66 66 66 68 69 70 69 67 66 66 66 68 68 66 66 66 69 72 74 74 71 66 60 55 53 52 52 52 51 50 49 48 51 57 62 64 63 61 58 55 52 51 51 51 52 52 52 51 52 53 55 57 59 60 60 60 59 59 58 58 59 59 58 57 56 54 52 50 47 42 37 33 31 30 30 31 32 32 32 32 31 31 30
67 68 68 68 67 66 67 68 69 69 69 67 66 67 68 68 67 66 66 68 71 73 75 74 70 64 58 55 53 53 53 52 51 50 49 53 60 64 66 65 63 60 57 54 53 52 52 52 52 52 52 53 54 55 56 58 59 60 60 59 59 59 59 59 59 59 59 57 55 53 51 47 43 39 34 32 31 31 31 32 33 32 32 31 31 30
67 67 68 69 68 67 66 67 68 69 69 69 68 68 69 69 68 66 66 67 69 71 74 75 73 68 61 57 55 54 54 53 53 51 51 56 63 67 68 67 65 63 59 57 55 54 53 54 53 53 54 55 56 56 56 57 58 59 59 59 59 59 59 60 60 60 60 58 56 54 51 48 44 40 36 33 31 31 32 32 33 32 32 31 31 30
66 67 68 70 70 68 67 67 68 69 70 69 69 69 69 69 68 66 66 66 67 69 71 73 73 71 65 60 57 56 55 54 54 53 53 58 65 69 70 69 67 65 62 59 57 56 55 55 55 55 56 57 57 57 56 57 57 58 59 59 59 59 59 60 61 61 60 58 55 53 50 48 45 41 38 34 32 32 32 32 32 32 31 31 30 29
62 66 68 70 70 69 67 67 68 69 70 69 67 67 67 67 67 66 65 64 65 67 69 71 72 71 67 62 59 57 56 55 55 54 54 59 66 70 71 70 68 66 63 60 58 57 56 56 56 57 58 58 58 57 56 57 58 59 59 59 59 59 60 60 61 61 59 56 53 51 49 47 45 42 39 36 33 32 32 32 32 32 31 30 30 29
57 62 68 69 69 69 68 68 68 69 69 67 66 65 65 66 66 65 62 62 63 66 68 69 70 70 68 64 60 58 56 55 55 55 55 60 66 70 71 71 69 67 63 61 59 58 57 57 57 58 59 59 58 57 57 58 59 60 60 60 60 59 60 61 61 61 59 55 51 49 48 47 45 42 39 36 34 33 32 32 32 31 30 30 29 28
54 58 65 68 69 69 69 68 68 68 67 66 65 65 65 65 64 62 60 60 62 65 67 69 69 69 68 64 61 59 57 55 55 54 55 60 66 69 70 71 70 67 64 62 60 59 58 57 58 59 59 58 57 57 59 60 61 60 60 61 60 60 60 61 62 61 59 55 51 49 48 46 44 41 39 36 34 33 33 32 32 31 30 30 29 28
55 56 60 65 68 69 69 69 68 67 66 66 66 66 65 65 64 62 61 61 61 63 66 68 69 69 68 66 63 59 58 55 54 54 55 59 65 68 69 69 69 67 65 63 61 60 59 58 58 58 58 57 57 58 60 61 61 61 61 61 61 61 60 61 61 61 59 56 52 49 46 44 42 40 38 36 35 34 34 33 32 31 30 30 29 28
59 55 56 62 67 68 69 69 69 67 66 66 67 67 66 66 66 66 65 64 62 62 64 66 68 69 68 67 63 60 58 56 54 53 54 58 64 67 67 68 68 67 65 64 62 61 59 59 58 58 57 57 58 59 60 61 61 61 61 61 61 61 61 61 61 60 59 55 51 46 43 41 40 39 38 36 36 35 35 35 33 31 30 30 29 29
64 58 55 59 64 67 69 70 69 67 66 66 67 68 68 69 70 70 70 67 64 62 61 64 67 69 69 67 64 61 59 57 55 53 53 57 62 65 65 66 67 67 66 65 63 62 60 59 58 57 57 57 57 59 60 61 61 61 61 61 61 61 60 60 60 59 57 53 48 44 41 40 40 39 38 37 37 37 37 35 33 31 30 30 30 29
68 64 58 56 58 64 68 69 67 66 65 66 67 68 70 71 72 73 73 71 68 64 62 63 66 68 69 68 66 63 60 59 57 55 54 55 59 62 63 64 66 67 67 66 64 63 61 60 58 57 56 56 56 58 59 60 60 60 61 61 61 61 60 60 60 59 56 53 49 45 42 41 41 40 40 39 38 38 37 35 33 31 30 30 29 29
71 68 62 57 56 61 66 67 65 64 64 65 67 69 71 72 73 74 75 74 72 68 65 63 64 67 68 69 68 65 63 61 60 58 55 55 58 60 61 63 65 66 67 67 65 63 62 60 58 57 55 55 55 56 57 59 59 60 60 61 61 61 61 60 59 58 57 54 51 48 46 45 43 42 41 40 39 38 37 35 33 31 30 30 30 29
72 72 67 61 58 60 64 65 63 62 62 64 67 69 70 71 72 73 73 73 72 69 66 63 63 65 68 70 70 68 66 64 63 60 57 56 57 59 59 62 64 67 68 67 66 64 62 60 58 56 55 54 54 55 56 57 58 59 59 60 61 61 61 60 59 58 57 56 54 52 50 47 45 43 41 40 39 38 37 35 33 31 30 30 30 30
72 74 71 65 60 58 61 63 62 61 61 63 66 68 69 69 69 69 69 69 69 67 64 62 62 64 67 69 70 70 69 67 65 62 58 57 57 58 59 61 64 67 68 68 66 64 62 60 58 56 54 54 53 54 55 56 57 58 59 60 60 61 60 60 59 59 58 57 56 54 52 49 46 43 40 39 39 38 37 35 33 31 31 31 31 30
71 74 74 69 63 59 60 62 62 61 61 63 65 67 67 66 65 64 63 63 63 63 62 63 63 65 66 67 69 70 71 70 68 64 59 56 56 57 59 61 64 66 68 68 66 65 63 60 58 56 55 54 54 54 54 55 57 58 58 59 60 60 60 59 59 59 59 59 58 57 54 50 45 41 39 38 38 38 37 35 33 32 31 31 31 31
68 73 75 72 66 61 60 61 62 62 61 63 65 66 66 64 60 58 57 58 60 61 62 63 64 64 65 66 68 70 71 70 69 64 58 53 53 56 59 61 64 66 67 68 67 65 63 60 58 56 55 54 54 54 54 55 57 58 58 59 60 61 61 60 60 60 60 60 60 58 55 49 44 40 38 38 38 38 37 36 34 33 33 33 32 32
63 69 74 74 70 65 61 62 64 64 63 64 65 66 65 62 57 54 53 55 58 60 61 61 62 63 64 65 67 69 70 69 68 64 56 50 48 51 55 60 63 66 67 68 67 65 62 60 58 56 55 55 54 54 54 55 57 58 59 59 60 61 62 61 61 61 61 60 60 58 54 49 43 39 38 38 38 38 38 37 36 35 34 34 33 33
58 64 70 74 73 69 64 63 65 66 65 65 65 66 65 61 58 54 52 53 54 56 58 60 61 62 63 64 66 67 67 66 65 62 55 47 43 44 49 54 60 64 67 67 67 65 62 60 58 56 55 55 54 54 54 55 56 57 58 59 60 61 62 62 62 62 61 60 59 58 54 48 43 40 38 38 39 40 40 39 37 36 35 34 34 34
55 59 66 71 74 73 69 66 66 68 67 66 66 66 64 62 61 59 56 52 51 53 56 59 61 61 61 62 64 64 64 63 64 61 55 48 42 40 42 48 55 61 65 67 67 65 62 61 59 57 56 56 55 55 55 55 55 56 56 58 59 61 62 63 62 62 62 61 60 58 54 48 44 41 40 40 42 42 42 41 38 36 35 35 35 34
53 56 62 67 71 73 73 70 70 70 69 67 66 66 64 63 64 65 62 56 53 53 55 57 59 59 58 59 59 61 62 63 64 62 55 48 43 41 41 45 52 59 64 67 67 65 63 62 60 59 57 57 56 56 56 56 56 56 56 57 60 62 63 63 63 63 63 63 61 58 53 48 44 42 41 42 44 44 44 42 39 37 36 36 36 35
51 54 59 63 68 71 73 74 73 72 69 67 66 65 63 64 67 69 67 61 57 55 56 56 56 56 55 56 57 59 62 65 66 62 55 49 45 43 42 45 50 57 62 66 68 66 64 62 61 59 58 57 57 57 57 58 58 57 57 59 61 62 63 63 62 63 63 64 62 58 53 48 44 42 42 43 45 45 44 41 39 37 36 36 36 36
49 52 56 60 64 67 71 73 73 72 69 66 65 64 64 66 70 72 69 63 59 57 57 56 56 55 54 55 56 59 63 66 65 61 55 50 46 44 43 45 50 55 61 65 66 66 64 61 59 58 58 58 58 58 59 59 60 60 59 60 62 63 63 62 61 61 62 62 60 57 52 48 44 42 42 43 44 44 43 41 39 37 37 37 37 35
47 50 54 58 61 65 68 71 72 71 69 66 64 64 66 70 73 72 68 63 59 58 58 58 57 56 55 54 55 57 61 64 63 59 54 50 48 46 45 45 49 54 59 63 64 63 61 60 58 57 57 58 58 59 59 60 61 62 62 62 63 64 64 63 61 60 60 59 58 55 51 48 44 43 42 42 43 43 42 40 39 38 38 38 37 35
46 48 52 56 60 63 66 69 70 70 68 66 64 64 66 69 71 69 65 61 60 60 61 60 59 59 57 54 53 55 59 61 60 57 53 51 49 47 46 46 48 52 56 59 61 61 60 58 58 57 57 57 57 58 59 60 62 63 63 64 64 64 64 63 62 61 60 58 57 54 51 48 45 43 42 42 42 42 41 40 40 39 39 38 37 35
44 46 50 54 59 62 65 68 69 69 68 66 64 63 64 66 67 65 61 60 60 62 63 62 61 60 58 55 53 54 58 60 59 56 53 50 49 47 47 47 48 50 51 54 56 58 59 58 58 59 59 58 58 59 59 61 62 64 65 65 65 65 65 64 63 62 61 59 58 55 52 49 45 43 42 42 43 43 42 41 41 40 40 39 37 36
43 45 49 53 57 61 65 67 68 68 67 66 64 62 62 63 64 62 60 60 61 63 64 63 62 61 58 55 53 53 56 58 57 55 52 50 48 48 48 49 48 47 47 48 50 54 56 57 57 58 60 60 61 60 60 61 63 64 65 66 66 66 65 64 64 63 63 61 60 57 54 50 46 44 43 43 44 43 43 42 42 41 40 39 38 36
43 45 48 52 56 60 64 67 68 68 67 67 64 62 61 62 62 62 61 61 62 63 63 62 61 59 57 54 51 51 54 55 55 54 51 49 49 49 50 49 48 45 44 44 47 50 53 56 57 59 61 62 63 62 62 63 64 65 67 67 68 67 66 65 64 64 64 63 61 59 55 51 47 45 44 45 45 44 44 43 43 42 41 40 38 36
42 44 47 51 56 59 62 66 68 68 68 67 65 63 61 61 61 61 61 61 61 61 60 60 58 57 54 51 50 51 53 54 53 51 49 49 49 51 51 50 47 44 42 43 45 48 52 55 58 60 62 62 63 63 63 64 65 66 68 69 69 68 67 66 66 65 65 64 62 59 56 52 49 46 46 46 45 45 45 45 45 44 42 41 39 37
42 43 46 50 54 58 61 65 67 68 68 66 65 64 63 61 60 60 59 60 60 59 58 57 55 53 51 50 50 51 53 53 51 50 48 49 50 52 53 52 48 45 43 43 46 49 52 55 57 59 61 62 63 64 64 65 66 67 69 70 70 70 69 68 67 66 65 63 61 59 56 53 50 48 47 47 46 46 46 46 46 45 43 41 39 38
41 42 45 49 53 56 59 63 65 66 65 64 63 63 63 62 61 59 59 58 58 57 55 54 52 51 50 50 51 52 52 52 50 49 49 50 51 53 54 53 50 47 45 46 48 51 53 55 57 58 60 62 63 64 64 66 67 69 71 72 72 71 70 68 67 65 64 63 61 59 56 53 51 49 48 47 47 47 47 47 46 45 43 42 40 39
41 42 44 48 52 55 57 60 62 62 61 60 60 61 63 63 62 60 59 58 57 56 55 53 51 50 50 50 50 50 51 50 50 50 50 51 52 54 55 54 52 50 49 49 50 52 53 55 57 59 61 62 64 64 65 66 69 72 74 75 74 72 70 68 67 66 64 63 61 59 56 53 51 49 48 47 47 47 47 47 46 44 43 42 40 39
41 42 44 47 51 54 54 56 58 58 57 55 56 58 60 62 62 61 60 59 59 58 56 54 52 51 51 50 49 49 50 50 50 50 51 52 54 55 56 56 54 53 52 52 52 52 54 55 57 59 61 62 64 65 66 67 69 72 76 77 76 73 71 70 68 66 65 64 62 60 56 53 51 49 48 47 47 48 48 47 45 44 42 41 40 39
41 41 43 47 50 53 54 55 56 56 54 52 53 55 58 60 60 60 60 60 61 60 59 56 54 53 53 52 51 50 50 51 51 51 52 54 55 56 57 56 56 55 54 53 53 53 54 55 57 58 59 60 62 63 64 66 68 72 75 77 77 76 75 74 72 69 67 65 63 60 56 53 51 49 48 48 49 49 48 47 45 44 43 41 40 39
40 41 43 45 49 52 54 56 57 55 53 52 53 54 56 58 59 59 60 62 63 63 61 58 56 55 55 55 53 52 52 51 51 51 53 54 56 56 57 57 56 56 55 55 55 55 55 56 56 57 58 58 59 60 61 63 66 70 74 76 77 78 78 77 75 72 69 65 62 58 54 52 50 49 49 49 50 49 48 46 45 44 43 42 41 39
39 40 42 44 46 49 53 56 57 56 54 53 53 54 56 57 58 59 61 63 64 65 64 61 60 59 59 58 57 55 54 53 51 51 53 55 56 57 58 57 57 57 56 56 56 56 56 56 56 55 55 55 56 57 58 61 64 68 71 74 77 78 79 78 75 72 67 63 58 55 52 51 50 50 50 51 50 49 47 46 44 44 43 42 41 39
38 40 41 43 45 49 54 57 57 56 55 53 53 53 54 55 56 58 60 63 65 67 66 65 64 63 63 62 60 58 57 56 55 55 56 57 58 59 59 59 58 57 57 57 57 57 57 57 56 55 54 54 54 56 57 59 62 65 69 73 76 79 80 78 73 68 62 57 53 51 50 50 50 51 52 51 50 48 47 45 44 43 43 42 40 39
37 39 40 42 45 49 53 56 57 57 55 54 52 51 51 52 53 56 59 62 65 67 67 67 66 65 64 63 62 61 60 59 59 59 59 60 61 60 60 59 58 57 57 57 58 58 59 58 58 57 56 55 55 56 58 60 62 63 66 70 74 77 78 74 69 62 56 52 50 49 49 49 50 51 52 51 49 47 46 45 44 43 42 41 40 39
37 38 40 42 45 49 53 55 56 57 56 54 51 49 49 49 50 53 56 59 62 65 66 66 66 65 64 63 62 62 61 61 61 61 61 61 61 61 60 59 58 57 57 58 59 60 61 61 60 59 58 56 54 53 54 57 60 62 64 68 73 76 76 70 63 57 52 49 48 48 48 49 50 51 50 49 47 46 45 44 43 43 42 41 40 39
36 38 41 43 45 49 52 54 56 57 57 55 52 49 47 47 48 50 53 56 59 62 64 65 65 65 64 64 63 62 62 61 61 61 61 61 61 60 59 58 58 57 58 59 61 62 64 63 62 60 57 53 50 49 49 52 56 60 65 71 75 76 73 65 58 52 49 48 48 48 48 49 49 49 48 47 45 44 44 43 43 42 41 40 40 39
36 39 41 44 46 49 52 54 56 57 56 54 51 49 47 46 47 49 51 54 57 59 61 63 63 63 63 62 62 61 61 61 61 61 61 61 61 60 59 58 57 57 58 60 62 64 65 64 62 59 55 50 47 46 46 48 52 58 65 72 74 71 65 58 53 50 49 48 48 48 48 48 48 47 46 45 44 43 42 42 42 41 40 40 39 39
36 39 42 45 47 49 51 53 54 55 54 53 50 48 46 46 46 48 50 52 55 57 58 59 60 60 60 60 60 60 60 61 61 61 61 61 61 60 59 58 58 58 60 61 63 64 65 64 62 58 54 49 46 45 46 49 52 57 64 68 67 62 56 52 50 50 49 48 47 47 47 47 47 46 45 43 42 42 41 41 41 41 40 39 39 39
Wind_Direction
262 261 259 258 257 256 255 253 252 250 249 248 247 248 250 252 254 254 253 250 246 244 244 245 246 246 245 245 245 246 245 244 242 242 243 245 245 240 233 226 220 216 218 223 226 227 227 229 231 232 232 230 229 229 229 230 230 230 231 232 234 237 239 241 242 245 248 253 258 261 262 262 262 264 266 270 274 276 278 278 277 275 273 271 271 274
262 262 261 260 258 256 254 253 252 252 251 249 248 248 248 249 252 254 254 251 247 244 244 245 246 246 244 244 245 245 244 242 240 240 243 246 246 240 233 225 218 215 219 223 226 226 227 229 231 232 231 230 229 229 230 230 231 231 232 234 236 239 241 242 243 245 247 252 257 261 262 261 261 261 264 268 271 274 276 277 277 276 274 272 272 273
262 262 261 261 260 258 255 253 251 251 251 251 249 248 248 248 250 252 253 252 249 246 244 245 245 245 244 244 245 245 244 241 240 241 245 248 246 240 231 222 215 214 220 224 225 226 227 229 230 231 231 230 229 228 229 231 231 232 233 235 238 240 242 243 244 245 247 250 255 259 261 261 260 260 262 266 269 272 274 276 277 278 277 275 274 274
262 262 261 261 261 260 257 254 251 250 250 251 250 249 248 247 247 249 251 252 251 249 246 245 245 243 243 243 244 245 244 243 242 244 247 249 246 239 228 217 212 214 220 224 225 226 227 229 230 231 231 230 229 228 229 230 232 233 234 236 239 241 243 244 244 245 246 249 253 257 260 260 259 258 260 264 267 270 272 275 277 279 279 278 277 276
261 261 260 260 261 260 259 256 252 250 249 249 249 249 248 246 246 246 248 249 251 251 249 247 245 243 242 242 244 245 246 246 247 248 250 249 245 236 224 214 211 215 220 223 225 226 228 229 230 232 232 231 229 228 228 230 231 233 234 237 239 242 243 244 245 245 246 248 252 256 258 259 258 257 258 262 266 269 271 273 276 279 281 280 279 277
260 259 259 260 260 260 259 257 253 250 249 248 248 247 247 246 245 244 245 246 248 250 250 249 247 245 242 241 243 245 247 249 251 251 251 249 243 232 219 211 211 215 220 223 225 226 228 229 230 232 232 231 229 227 227 229 231 233 235 237 240 243 244 245 245 245 246 248 251 254 258 259 258 256 257 260 264 267 270 272 275 278 280 281 280 279
259 258 258 259 259 259 258 257 254 251 248 247 246 246 246 246 245 244 244 244 246 248 249 249 249 247 245 243 243 245 248 251 252 252 252 248 238 226 215 210 211 216 220 222 224 226 227 229 230 232 232 231 229 227 227 228 230 232 235 238 241 244 246 246 246 246 246 248 250 254 257 258 257 256 256 259 263 266 268 271 274 277 279 281 280 279
258 257 257 257 257 257 257 256 254 252 249 246 244 244 245 245 244 243 243 243 244 245 246 248 249 249 247 245 244 245 248 251 252 252 251 245 233 220 212 210 213 216 219 221 223 225 227 228 230 231 232 231 229 227 227 228 230 232 234 238 242 245 247 248 248 247 247 248 250 253 256 257 256 255 255 258 261 265 267 269 272 275 278 280 280 280
258 257 256 255 255 255 256 255 254 252 250 247 245 244 245 245 245 244 243 243 243 243 244 245 247 248 248 247 246 246 248 250 252 252 249 240 227 215 210 211 214 216 218 219 222 224 226 228 230 231 232 232 230 229 228 228 230 232 234 238 242 246 249 250 250 249 248 249 250 253 255 256 256 254 255 257 261 263 266 268 270 273 276 279 280 280
258 257 256 254 253 253 254 254 254 252 250 248 247 245 245 245 245 245 243 243 242 242 243 243 244 245 246 246 246 246 248 250 252 251 246 235 222 213 209 211 214 216 216 218 220 223 225 227 229 231 232 232 232 231 230 230 231 232 235 238 243 247 249 251 251 250 250 249 250 252 255 256 255 254 254 257 260 262 264 266 269 271 274 277 280 280
257 257 257 255 253 252 252 253 253 253 251 249 247 246 246 246 246 245 244 242 242 242 243 243 242 242 243 244 245 246 247 250 251 250 243 230 218 211 210 212 214 215 215 216 218 221 224 226 228 230 231 232 233 233 233 233 233 234 236 239 243 247 249 251 251 251 250 250 251 252 254 255 254 253 254 257 260 262 263 265 267 270 273 276 279 280
257 256 256 255 253 251 250 251 252 252 251 249 247 245 245 244 244 244 243 242 241 241 242 243 242 242 241 242 243 245 246 249 251 248 240 226 216 211 210 212 214 215 215 215 217 220 223 225 227 229 230 232 233 234 235 235 236 236 238 240 243 246 249 250 251 250 250 250 251 252 253 254 254 253 254 257 260 262 262 264 266 268 271 275 277 279
257 256 255 255 254 251 249 249 250 250 250 248 246 244 244 243 243 243 242 241 241 241 242 243 243 243 242 241 241 243 245 248 250 248 238 225 216 211 211 212 214 214 214 215 216 218 221 223 225 227 229 231 233 235 236 237 238 239 240 242 244 246 248 249 250 250 250 250 250 251 253 254 254 253 255 257 260 261 261 262 264 266 270 273 276 277
258 256 254 254 253 251 249 247 247 248 248 247 246 244 243 243 242 242 242 241 241 241 242 243 244 244 243 241 240 241 244 247 250 248 238 225 217 213 212 213 214 214 214 214 215 217 219 221 224 226 228 230 233 235 237 238 240 241 242 243 245 246 248 248 249 249 248 249 250 251 253 254 254 254 255 258 260 261 261 261 262 264 268 271 274 276
256 256 255 253 252 251 249 246 246 246 247 247 245 244 243 242 241 241 241 241 241 241 242 243 244 244 243 242 240 239 241 245 249 247 238 226 219 215 214 214 215 215 215 215 215 217 218 220 222 225 227 229 232 234 236 238 240 241 242 244 245 246 247 248 248 248 248 249 250 251 252 253 254 255 256 259 261 261 260 260 260 262 265 269 272 274
253 254 255 253 251 250 248 246 245 245 245 245 244 242 241 240 239 239 240 242 242 242 242 242 242 242 242 240 238 237 238 242 247 246 239 227 221 219 217 215 215 215 216 216 216 217 218 220 222 225 228 230 231 233 235 237 238 240 242 243 244 246 247 247 247 247 247 248 250 251 252 253 254 256 258 260 262 262 261 259 259 260 263 267 270 272
250 251 254 254 252 250 248 246 245 244 244 243 242 240 238 237 236 237 238 240 241 240 240 241 241 240 240 238 236 235 236 240 244 245 239 229 224 222 221 218 216 216 216 216 217 217 219 220 223 226 228 230 232 233 234 235 236 238 240 241 243 244 245 246 246 246 247 248 250 251 251 252 254 257 259 262 263 263 262 259 257 258 261 264 267 269
248 249 250 252 252 251 248 245 244 243 243 242 241 239 236 234 233 233 235 238 238 237 237 238 239 238 238 237 236 234 234 237 241 242 238 230 226 225 223 220 218 217 217 217 217 218 219 221 224 226 229 231 232 233 234 234 235 236 238 240 242 243 244 245 245 246 247 249 250 250 250 251 254 257 260 262 263 263 261 258 256 256 259 262 265 267
246 246 248 250 251 251 249 245 243 242 241 241 240 237 235 232 231 231 233 235 236 236 236 236 237 236 236 236 235 233 233 236 239 240 237 231 228 227 225 221 219 218 218 217 218 218 220 222 224 227 229 231 233 234 234 234 234 235 237 239 241 242 244 245 246 247 248 250 251 251 251 251 254 257 260 261 262 262 260 257 255 255 258 261 264 266
245 245 245 247 249 250 249 246 243 241 240 240 240 237 234 232 230 230 232 234 236 237 236 236 236 235 234 234 234 234 234 236 239 240 238 233 230 228 226 222 220 218 217 217 218 218 220 222 224 227 230 232 233 234 234 235 235 235 237 239 240 242 243 245 246 248 249 251 252 253 253 254 255 257 259 260 261 260 258 255 253 254 257 260 263 265
245 243 243 243 245 247 248 246 243 241 240 240 240 238 235 232 231 231 232 234 236 238 238 237 236 234 233 233 234 235 235 237 239 241 240 237 233 230 227 223 220 218 217 217 217 218 220 222 224 227 229 231 233 234 234 235 235 235 236 238 240 241 243 245 246 248 249 251 252 254 256 256 257 258 259 260 260 258 256 253 252 253 257 260 263 265
246 243 241 241 242 244 247 246 243 241 240 240 239 238 235 233 231 231 232 233 236 238 239 238 236 234 233 233 234 235 236 238 240 242 243 241 236 231 227 223 220 218 217 216 217 218 220 222 224 227 229 231 232 233 234 234 235 235 236 238 240 241 243 244 246 247 248 250 252 254 256 256 257 257 258 259 259 257 254 251 251 254 258 261 263 265
245 243 241 239 240 242 244 245 243 240 239 239 239 238 236 234 232 232 232 233 235 237 239 239 238 236 235 234 234 235 236 238 240 242 244 243 238 232 227 223 220 217 216 216 217 218 220 222 224 226 229 231 232 233 234 234 235 235 236 237 239 241 242 244 245 247 248 249 251 253 254 255 255 256 257 258 257 255 252 251 252 255 259 262 264 266
244 242 240 238 238 239 241 242 241 239 238 238 239 238 236 235 234 233 234 235 236 237 238 239 239 239 237 236 235 235 236 238 240 242 243 243 239 232 226 222 219 217 216 216 217 218 219 221 223 226 228 230 231 232 233 234 234 235 236 237 239 240 242 244 245 246 248 249 250 251 252 252 253 254 256 256 254 252 250 251 253 257 261 263 265 266
243 241 239 237 236 237 238 240 240 238 236 237 237 237 236 235 235 235 235 235 236 236 236 237 238 239 238 237 236 236 236 238 239 241 242 242 238 232 226 222 220 218 217 217 217 218 219 221 223 225 227 228 230 231 232 233 234 235 236 237 239 240 242 243 245 246 248 249 249 250 250 250 251 253 254 253 251 249 249 250 254 258 262 264 266 266
243 240 237 235 234 234 236 238 239 239 236 236 236 236 236 235 235 235 235 235 234 233 233 234 236 238 238 237 236 236 236 237 239 240 240 240 236 231 226 223 221 219 218 217 217 217 219 221 223 225 227 228 229 230 231 232 233 234 235 237 238 239 241 243 244 246 246 247 248 248 247 248 250 252 252 250 248 247 248 251 255 260 263 265 265 266
244 239 236 234 232 232 234 238 240 240 238 236 236 235 235 234 234 235 235 233 232 231 231 233 235 236 237 236 235 235 235 237 238 238 237 236 234 230 226 223 221 220 218 217 217 217 219 221 224 226 227 227 228 229 230 231 232 233 235 236 237 238 239 241 242 243 244 245 246 246 246 247 249 250 250 248 247 247 250 253 257 260 263 264 265 265
246 240 236 233 231 231 232 236 239 240 240 238 236 235 234 234 235 235 235 232 230 230 230 231 233 235 235 235 234 234 234 236 236 236 234 232 231 230 227 225 224 222 220 218 217 217 219 222 224 225 226 227 227 228 229 231 232 234 235 236 237 237 238 238 239 240 241 243 245 245 245 246 248 249 248 247 247 248 251 254 257 260 262 263 263 263
248 241 236 233 231 230 230 233 237 240 240 238 236 235 235 236 237 237 235 233 231 230 230 231 232 233 234 234 233 233 234 234 234 233 231 230 231 231 229 228 227 225 221 218 216 217 219 222 224 225 226 226 227 228 229 230 232 234 235 236 236 236 236 236 237 238 240 242 244 245 245 246 247 248 247 246 246 248 251 254 257 259 261 262 262 261
249 242 236 232 230 229 229 231 235 238 240 239 236 235 236 239 240 238 234 232 231 230 229 229 230 231 233 233 233 233 233 233 231 230 230 231 232 232 231 231 230 227 223 218 216 217 219 221 223 224 225 225 226 227 228 229 231 233 234 234 234 234 234 234 235 236 238 241 243 244 244 245 246 246 245 245 245 247 250 253 255 258 259 260 260 259
250 243 237 232 230 229 229 230 234 237 239 239 237 235 237 239 240 238 234 230 228 228 227 228 229 230 232 232 232 232 232 231 229 228 228 231 233 234 232 232 231 228 224 219 216 216 219 221 222 223 224 225 226 226 227 228 230 231 232 231 231 231 231 231 232 234 236 240 242 243 243 243 244 245 244 244 244 246 248 251 254 256 257 258 258 257
250 243 237 232 229 228 229 230 233 236 238 238 237 237 237 238 237 235 233 230 228 226 226 227 228 230 232 232 232 232 231 230 228 227 228 230 233 234 233 233 232 229 224 220 217 217 219 221 222 223 224 225 226 226 227 228 229 230 230 229 229 228 229 229 229 231 234 237 240 241 241 242 243 244 243 243 244 245 248 250 253 255 256 256 256 255
249 243 237 232 229 228 229 230 232 235 236 237 237 237 236 236 235 234 232 231 228 226 226 227 228 230 232 232 232 232 232 231 229 229 229 230 232 233 232 232 231 227 223 220 219 219 221 223 224 225 225 225 226 227 228 228 229 229 229 228 228 227 228 228 228 229 232 235 237 238 239 240 242 243 243 244 245 246 248 250 252 253 254 254 254 254
249 242 236 232 229 228 228 230 232 234 235 235 236 235 235 235 234 233 232 231 228 226 226 227 229 231 231 230 229 230 231 231 231 230 229 229 230 231 230 229 227 224 221 219 218 220 222 224 226 226 227 227 227 228 228 229 229 229 228 227 227 227 227 228 228 229 231 233 234 235 236 238 241 243 244 246 247 248 249 250 251 252 253 253 253 253
249 241 235 231 229 228 228 229 231 232 233 233 234 234 233 233 232 232 231 229 227 226 226 228 230 231 231 228 227 228 230 231 231 230 228 228 228 229 227 225 222 220 218 217 218 220 222 224 225 226 227 227 228 229 229 229 229 228 227 226 226 227 228 229 230 232 233 233 233 234 235 237 240 243 246 248 249 250 249 250 250 251 251 251 252 252
249 241 235 231 229 228 228 229 229 230 231 231 231 231 230 231 231 230 229 227 226 226 226 228 229 231 230 229 228 229 230 232 231 229 227 226 225 225 224 223 221 220 219 219 219 220 222 223 224 225 226 227 228 229 229 229 229 227 226 225 226 227 229 231 234 235 236 235 234 234 235 238 241 245 249 251 252 251 249 249 249 250 250 250 251 252
249 241 234 231 229 229 229 229 229 229 229 229 228 228 228 228 229 228 227 226 225 225 226 227 228 229 229 229 230 231 232 233 232 230 227 225 223 223 223 222 222 222 223 223 223 223 223 223 224 225 226 227 227 228 229 229 228 226 225 224 225 227 230 233 235 237 237 235 234 234 236 239 243 247 251 253 252 250 248 247 248 248 249 250 251 252
250 242 234 230 229 228 228 228 228 228 228 227 227 226 226 226 227 227 226 225 224 224 224 225 225 226 228 229 231 232 233 233 231 228 225 223 222 222 223 223 224 225 226 227 227 226 225 224 225 225 226 227 228 229 229 229 228 226 224 225 226 228 231 234 236 236 235 233 233 234 236 240 244 248 251 252 250 247 245 245 246 247 248 249 251 252
251 242 234 229 227 226 227 228 228 228 228 227 227 226 225 225 225 225 224 224 223 223 222 222 223 224 226 228 230 231 232 230 228 225 222 220 221 222 224 225 227 228 229 230 229 229 228 227 226 226 227 227 228 229 230 230 228 227 225 226 227 229 232 234 235 234 232 231 231 233 236 240 244 249 251 251 248 245 243 244 245 246 247 249 250 252
251 243 235 229 226 225 225 226 228 228 229 229 228 226 225 224 224 223 223 222 222 221 220 220 220 221 223 225 228 229 229 227 225 221 219 218 219 222 225 228 230 232 232 231 230 230 229 229 229 229 229 229 230 230 230 230 228 228 227 227 228 230 233 234 233 232 230 229 230 233 236 240 245 249 251 249 245 242 241 242 244 246 247 249 251 252
249 242 234 229 225 223 223 225 227 229 229 229 227 225 223 222 222 221 221 220 219 218 218 217 217 218 219 222 224 225 225 224 222 219 217 217 218 221 225 228 231 233 233 232 231 230 230 230 230 230 230 231 232 233 232 230 229 228 228 229 232 234 236 235 233 231 230 229 230 233 237 241 246 249 249 246 242 239 239 241 243 245 247 248 250 251
247 240 233 228 224 222 222 224 226 227 227 226 224 222 221 221 221 220 220 218 217 216 215 214 214 215 217 219 221 222 222 221 219 218 217 217 219 221 224 227 230 232 233 232 231 231 230 230 230 230 231 232 233 233 233 232 230 228 228 230 234 237 238 237 235 233 231 230 231 233 237 242 247 249 247 243 239 237 238 240 242 244 245 247 248 249
244 238 232 227 223 221 220 222 224 225 224 223 222 221 221 221 221 221 220 218 217 215 215 214 215 216 217 220 222 223 222 221 219 217 216 217 219 222 225 228 230 231 232 232 231 230 230 230 231 231 232 232 233 233 233 232 230 229 229 231 233 235 235 236 237 235 233 231 231 233 238 243 247 247 244 239 237 236 237 239 241 243 244 245 246 246
242 236 230 227 223 221 220 221 222 222 222 221 221 222 222 223 223 222 221 219 217 216 215 216 217 219 221 223 225 226 226 225 222 219 217 218 220 223 226 229 231 232 232 231 230 229 229 229 230 231 232 232 233 234 234 233 231 230 230 231 233 235 235 237 237 235 232 230 231 234 239 244 245 244 239 236 235 235 237 239 241 242 243 244 244 244
239 233 229 225 223 221 219 220 220 220 220 220 221 223 224 224 224 223 221 219 217 216 216 216 218 220 223 225 226 227 227 227 225 222 220 221 223 226 228 231 232 232 231 230 229 228 228 228 228 230 231 233 234 235 235 233 232 231 231 232 233 234 236 237 236 233 230 229 231 236 240 243 242 239 235 233 234 235 237 239 240 241 242 243 243 243
238 232 227 224 221 220 220 220 219 219 219 220 222 223 224 224 223 222 220 219 218 217 216 216 217 219 222 223 225 226 227 226 225 224 224 224 226 228 230 231 231 231 230 229 228 228 227 226 227 228 231 234 237 238 237 235 234 233 232 232 232 233 233 232 231 229 228 230 234 238 240 239 237 234 232 232 234 236 238 239 239 239 240 241 242 241
236 229 224 221 221 221 221 221 220 219 220 221 222 223 223 223 222 221 220 219 218 218 218 218 218 219 221 223 224 226 226 226 225 225 226 227 228 229 230 231 230 230 229 228 228 227 227 226 227 229 233 239 242 243 240 238 236 235 234 233 233 232 230 228 227 227 229 232 235 237 237 235 232 231 231 233 235 237 238 238 238 238 238 239 239 239
233 226 221 219 219 221 222 222 221 220 220 220 221 222 222 222 221 220 219 218 218 219 219 220 220 221 222 224 226 227 228 228 228 227 228 228 229 230 230 230 229 229 228 228 228 227 227 228 230 233 237 243 247 247 244 240 237 236 236 235 234 232 229 227 227 228 230 232 233 233 232 231 230 230 232 234 236 237 237 237 236 237 237 238 237 235
228 222 217 215 218 222 224 223 222 221 220 220 220 220 220 221 220 220 219 219 219 219 220 221 221 222 224 225 226 227 228 229 230 230 230 230 230 230 229 229 228 228 228 229 229 229 230 231 234 237 241 245 247 247 243 240 238 237 237 236 233 231 228 227 226 227 228 229 229 229 229 229 231 232 234 236 237 237 236 236 235 236 236 236 235 232
222 217 214 213 215 220 224 225 224 222 221 219 219 219 219 219 219 219 219 219 220 220 221 221 222 223 223 224 225 226 228 229 230 231 231 230 230 229 229 228 228 228 229 230 231 232 234 237 239 241 243 244 243 241 239 238 238 237 235 232 229 226 224 224 224 225 226 227 227 227 227 229 231 233 235 236 236 236 235 234 234 235 235 234 233 229
215 213 212 212 213 218 223 226 226 224 221 219 218 218 218 219 219 218 218 219 220 221 221 222 222 222 223 223 225 226 228 229 230 230 230 230 229 229 228 228 228 228 229 230 232 235 238 241 242 242 242 240 237 235 235 237 237 235 231 226 223 221 221 221 222 223 224 225 225 226 227 229 231 232 233 234 234 233 232 232 233 233 233 231 229 225
Height
2977 2978 2981 2983 2985 2985 2985 2988 2990 2991 2991 2992 2994 2996 2999 3001 3002 3002 3004 3006 3007 3009 3010 3012 3014 3016 3019 3020 3021 3022 3023 3024 3025 3025 3025 3025 3027 3030 3034 3037 3040 3042 3045 3047 3049 3051 3053 3055 3056 3058 3059 3060 3060 3061 3061 3062 3063 3064 3065 3066 3067 3069 3070 3072 3073 3075 3076 3076 3077 3078 3079 3079 3080 3080 3081 3081 3081 3082 3082 3082 3082 3082 3082 3082 3082 3082
2973 2975 2976 2977 2978 2979 2979 2982 2985 2986 2986 2988 2990 2991 2993 2996 2998 2999 3000 3001 3002 3004 3006 3007 3009 3011 3013 3015 3016 3018 3019 3020 3021 3021 3021 3021 3023 3027 3031 3033 3036 3039 3041 3044 3046 3047 3049 3051 3053 3055 3056 3057 3057 3057 3058 3058 3059 3061 3062 3063 3065 3066 3068 3069 3071 3072 3073 3074 3075 3076 3076 3077 3077 3078 3078 3079 3079 3080 3080 3080 3081 3081 3081 3080 3080 3080
2969 2970 2971 2972 2973 2973 2973 2976 2980 2982 2982 2984 2986 2987 2989 2991 2992 2994 2996 2996 2998 2999 3001 3003 3005 3006 3008 3010 3012 3013 3014 3016 3017 3017 3016 3017 3020 3023 3027 3030 3032 3035 3038 3040 3042 3044 3046 3047 3049 3051 3052 3053 3054 3054 3055 3055 3056 3058 3059 3061 3062 3063 3065 3066 3068 3069 3070 3071 3072 3073 3074 3074 3075 3075 3076 3076 3077 3077 3078 3078 3078 3078 3078 3078 3078 3078
2965 2965 2965 2966 2967 2968 2968 2971 2974 2976 2978 2980 2981 2983 2985 2986 2987 2989 2991 2992 2993 2995 2996 2998 3000 3002 3003 3005 3007 3009 3010 3011 3012 3012 3012 3013 3016 3020 3023 3026 3028 3031 3034 3036 3038 3040 3042 3044 3046 3047 3049 3050 3051 3051 3051 3052 3053 3055 3056 3058 3059 3061 3062 3064 3065 3066 3067 3069 3070 3071 3071 3072 3072 3073 3073 3074 3075 3075 3076 3076 3076 3076 3076 3076 3076 3076
2959 2959 2959 2961 2962 2962 2962 2965 2968 2971 2972 2975 2976 2978 2979 2981 2982 2984 2986 2988 2989 2990 2991 2993 2995 2997 2999 3001 3003 3005 3006 3007 3008 3008 3008 3010 3013 3017 3020 3021 3024 3027 3030 3033 3035 3036 3038 3040 3042 3044 3045 3046 3047 3048 3048 3049 3050 3051 3053 3055 3056 3057 3059 3061 3062 3063 3065 3066 3067 3068 3068 3069 3070 3070 3071 3071 3072 3073 3073 3073 3074 3074 3074 3074 3074 3074
2953 2954 2955 2956 2957 2956 2957 2960 2962 2965 2967 2969 2971 2973 2974 2975 2977 2980 2981 2983 2984 2985 2986 2988 2990 2992 2994 2996 2998 3001 3002 3003 3004 3004 3004 3006 3010 3013 3016 3017 3020 3023 3026 3029 3031 3033 3035 3036 3038 3040 3041 3043 3044 3045 3045 3046 3047 3048 3050 3051 3053 3055 3056 3058 3060 3061 3061 3063 3064 3065 3066 3066 3067 3067 3068 3069 3070 3070 3071 3071 3071 3072 3072 3072 3072 3072
2947 2949 2950 2951 2951 2951 2953 2954 2956 2958 2961 2964 2966 2967 2968 2970 2972 2975 2976 2977 2978 2980 2982 2984 2986 2987 2990 2992 2994 2996 2998 2999 3000 3000 3001 3003 3006 3009 3011 3014 3016 3019 3022 3025 3027 3029 3031 3033 3035 3036 3038 3039 3040 3041 3042 3042 3044 3045 3047 3048 3050 3052 3053 3055 3056 3058 3059 3060 3061 3062 3063 3063 3064 3065 3066 3066 3067 3068 3068 3069 3069 3070 3070 3070 3070 3070
2941 2942 2945 2946 2946 2946 2948 2949 2950 2953 2956 2958 2960 2961 2963 2964 2967 2969 2971 2973 2974 2976 2978 2979 2981 2983 2985 2987 2990 2992 2994 2995 2995 2996 2997 3000 3002 3005 3007 3010 3012 3015 3017 3020 3023 3025 3027 3029 3031 3033 3034 3035 3037 3038 3039 3039 3041 3042 3044 3045 3047 3049 3050 3052 3054 3055 3056 3057 3058 3059 3060 3061 3061 3062 3063 3063 3064 3065 3066 3066 3067 3067 3067 3067 3067 3068
2935 2936 2938 2939 2940 2941 2942 2942 2944 2947 2950 2952 2954 2956 2957 2959 2961 2964 2967 2969 2970 2971 2972 2974 2976 2978 2981 2983 2986 2988 2990 2991 2991 2992 2994 2996 2998 3000 3003 3005 3008 3010 3012 3015 3019 3021 3024 3026 3027 3029 3030 3032 3033 3034 3035 3036 3037 3039 3041 3042 3044 3046 3047 3049 3051 3052 3053 3054 3055 3056 3057 3058 3059 3059 3060 3061 3061 3062 3063 3064 3064 3065 3065 3065 3065 3065
2929 2930 2931 2932 2934 2935 2936 2936 2938 2941 2946 2948 2950 2951 2952 2954 2956 2960 2962 2963 2964 2965 2967 2969 2971 2973 2976 2979 2982 2984 2985 2986 2987 2989 2991 2993 2994 2996 2998 3001 3003 3005 3007 3011 3014 3017 3020 3022 3024 3025 3026 3028 3030 3031 3032 3033 3034 3036 3037 3039 3041 3042 3044 3046 3047 3049 3050 3051 3052 3053 3054 3055 3056 3057 3057 3058 3059 3060 3061 3061 3061 3062 3062 3063 3063 3063
2923 2924 2925 2926 2927 2929 2930 2931 2933 2936 2940 2943 2944 2945 2947 2949 2951 2954 2956 2956 2958 2960 2962 2963 2965 2967 2971 2975 2977 2980 2981 2983 2984 2986 2988 2989 2991 2992 2994 2997 2999 3001 3003 3006 3009 3012 3015 3018 3020 3021 3023 3024 3026 3027 3029 3030 3031 3032 3034 3036 3037 3039 3041 3042 3044 3046 3047 3048 3049 3050 3051 3052 3053 3054 3055 3056 3056 3057 3058 3058 3059 3060 3060 3060 3061 3061
2917 2919 2920 2920 2921 2922 2924 2926 2927 2930 2933 2936 2938 2938 2940 2941 2945 2947 2949 2951 2953 2956 2957 2958 2960 2963 2966 2969 2972 2975 2978 2979 2980 2982 2984 2986 2987 2988 2990 2992 2995 2997 2999 3001 3004 3008 3011 3014 3016 3017 3019 3021 3022 3024 3025 3026 3028 3030 3031 3033 3034 3036 3037 3039 3041 3043 3044 3045 3046 3047 3048 3049 3050 3051 3052 3053 3053 3054 3055 3056 3056 3057 3057 3058 3058 3058
2911 2913 2914 2914 2915 2916 2917 2920 2922 2925 2926 2928 2930 2931 2932 2936 2940 2943 2945 2946 2949 2951 2952 2955 2957 2959 2961 2964 2967 2971 2973 2975 2976 2978 2981 2981 2982 2983 2986 2987 2990 2992 2994 2997 3000 3003 3006 3009 3012 3013 3015 3017 3019 3020 3022 3023 3025 3026 3028 3029 3031 3032 3034 3036 3038 3039 3041 3042 3043 3044 3045 3046 3047 3048 3049 3050 3051 3052 3053 3053 3054 3055 3055 3056 3056 3056
2906 2907 2908 2908 2908 2909 2911 2914 2916 2917 2918 2919 2922 2925 2928 2932 2936 2939 2941 2943 2945 2946 2949 2951 2953 2955 2958 2961 2963 2965 2968 2971 2973 2975 2976 2976 2977 2979 2981 2982 2985 2987 2990 2992 2995 2997 3001 3004 3007 3009 3011 3013 3015 3016 3018 3020 3021 3023 3025 3026 3028 3029 3031 3033 3035 3036 3037 3038 3040 3041 3042 3043 3045 3046 3046 3047 3048 3049 3050 3051 3051 3052 3053 3053 3053 3054
2902 2901 2901 2901 2901 2903 2905 2908 2909 2910 2911 2914 2918 2922 2926 2929 2932 2934 2936 2938 2940 2942 2944 2946 2948 2950 2953 2956 2958 2960 2963 2966 2969 2971 2971 2971 2972 2974 2976 2978 2981 2984 2986 2988 2990 2993 2996 2999 3002 3004 3006 3008 3010 3012 3014 3016 3017 3019 3021 3022 3024 3026 3028 3030 3032 3033 3034 3035 3036 3038 3039 3041 3042 3043 3044 3045 3046 3046 3047 3048 3049 3050 3050 3051 3051 3051
2898 2897 2894 2893 2895 2898 2899 2901 2903 2904 2906 2910 2914 2918 2921 2923 2925 2927 2930 2933 2935 2937 2940 2941 2943 2945 2948 2950 2953 2956 2958 2961 2964 2966 2966 2968 2969 2970 2972 2974 2977 2980 2982 2984 2986 2989 2992 2995 2997 3000 3002 3004 3006 3008 3010 3011 3013 3015 3017 3019 3021 3023 3025 3026 3028 3030 3031 3032 3034 3036 3037 3038 3039 3040 3041 3042 3043 3044 3045 3046 3046 3047 3048 3048 3049 3049
2892 2892 2889 2887 2889 2891 2893 2896 2897 2899 2902 2906 2909 2911 2913 2916 2918 2922 2926 2928 2930 2932 2934 2935 2937 2940 2942 2945 2948 2951 2952 2955 2958 2961 2963 2964 2964 2966 2967 2970 2973 2975 2977 2980 2982 2985 2988 2991 2994 2996 2998 3000 3002 3004 3006 3008 3010 3012 3014 3016 3017 3019 3021 3023 3025 3026 3028 3030 3031 3033 3034 3035 3036 3037 3038 3039 3040 3041 3042 3043 3044 3044 3045 3046 3046 3046
2883 2885 2886 2884 2883 2884 2888 2890 2891 2893 2897 2900 2902 2905 2908 2911 2914 2918 2921 2923 2924 2926 2927 2929 2931 2934 2936 2940 2942 2945 2948 2951 2954 2957 2959 2960 2960 2961 2964 2966 2969 2971 2974 2976 2979 2981 2984 2987 2990 2992 2994 2996 2999 3001 3003 3005 3007 3010 3011 3013 3014 3016 3018 3020 3022 3023 3025 3027 3028 3030 3031 3033 3034 3035 3036 3036 3037 3038 3039 3040 3041 3041 3042 3043 3043 3044
2875 2878 2881 2880 2878 2878 2882 2884 2885 2888 2892 2894 2896 2899 2904 2906 2908 2911 2914 2916 2918 2920 2922 2925 2927 2929 2932 2935 2936 2940 2945 2947 2950 2953 2954 2955 2956 2957 2960 2963 2965 2968 2970 2972 2975 2978 2981 2984 2986 2989 2991 2994 2996 2998 3000 3002 3004 3007 3009 3010 3011 3013 3015 3017 3019 3020 3022 3024 3025 3027 3029 3030 3031 3032 3033 3034 3035 3036 3037 3037 3038 3039 3040 3040 3041 3041
2867 2870 2874 2876 2875 2875 2875 2876 2879 2883 2887 2888 2891 2894 2898 2900 2902 2905 2907 2910 2912 2915 2918 2921 2923 2925 2929 2931 2934 2937 2941 2943 2946 2949 2950 2951 2952 2953 2956 2958 2961 2963 2966 2968 2971 2974 2977 2981 2983 2986 2988 2991 2993 2995 2997 2999 3001 3004 3006 3007 3009 3011 3012 3014 3016 3017 3019 3021 3023 3024 3026 3027 3028 3029 3030 3031 3032 3033 3034 3035 3036 3036 3037 3037 3038 3038
2861 2862 2864 2871 2874 2872 2868 2870 2873 2878 2882 2884 2886 2889 2891 2893 2896 2899 2901 2905 2909 2912 2915 2917 2918 2921 2925 2928 2930 2932 2936 2939 2941 2944 2946 2947 2948 2950 2951 2954 2957 2959 2961 2964 2967 2971 2974 2977 2980 2982 2985 2987 2990 2992 2995 2996 2999 3001 3003 3004 3006 3007 3009 3011 3013 3015 3016 3018 3020 3021 3023 3024 3026 3026 3027 3028 3030 3031 3031 3032 3033 3034 3034 3035 3035 3036
2856 2856 2857 2864 2868 2867 2864 2865 2869 2874 2877 2879 2880 2881 2883 2887 2891 2893 2896 2901 2904 2907 2910 2912 2914 2918 2922 2925 2926 2927 2931 2935 2936 2938 2941 2944 2944 2945 2947 2951 2953 2956 2958 2960 2963 2967 2970 2973 2976 2979 2981 2984 2987 2989 2991 2994 2996 2998 3000 3001 3003 3005 3006 3008 3010 3012 3013 3015 3017 3019 3020 3021 3023 3024 3025 3026 3026 3027 3028 3029 3030 3031 3031 3032 3032 3033
2849 2850 2853 2857 2861 2862 2861 2862 2865 2869 2872 2873 2874 2875 2878 2882 2885 2888 2892 2896 2900 2903 2907 2910 2913 2917 2919 2920 2921 2924 2927 2930 2931 2934 2937 2939 2939 2940 2943 2947 2950 2952 2954 2956 2960 2963 2967 2970 2973 2976 2978 2981 2984 2986 2989 2991 2992 2994 2996 2998 3000 3001 3003 3005 3006 3009 3011 3012 3014 3015 3017 3018 3020 3021 3021 3022 3024 3025 3026 3026 3027 3028 3028 3029 3030 3030
2842 2844 2847 2850 2854 2858 2860 2859 2860 2863 2866 2867 2869 2871 2875 2879 2882 2886 2890 2893 2897 2901 2905 2909 2911 2913 2913 2914 2916 2919 2921 2924 2926 2929 2932 2933 2934 2936 2940 2943 2946 2948 2950 2953 2956 2960 2963 2966 2969 2972 2975 2978 2980 2983 2985 2987 2989 2991 2993 2995 2996 2998 3000 3001 3003 3005 3007 3009 3010 3012 3014 3015 3016 3017 3019 3020 3021 3022 3023 3023 3024 3025 3026 3026 3027 3027
2836 2838 2841 2844 2848 2853 2857 2855 2854 2857 2861 2863 2865 2867 2871 2875 2879 2883 2886 2890 2893 2896 2900 2902 2904 2904 2905 2907 2911 2914 2916 2919 2921 2923 2926 2929 2931 2934 2936 2939 2941 2944 2947 2950 2953 2956 2960 2963 2966 2969 2972 2974 2977 2979 2981 2984 2986 2988 2990 2992 2993 2995 2996 2998 3000 3002 3004 3005 3007 3008 3010 3012 3013 3015 3016 3017 3018 3019 3020 3021 3021 3022 3023 3023 3024 3025
2829 2831 2834 2837 2842 2848 2852 2851 2850 2851 2855 2858 2860 2863 2866 2870 2874 2878 2881 2883 2886 2888 2891 2893 2895 2896 2899 2902 2906 2908 2911 2914 2916 2918 2922 2925 2928 2930 2933 2935 2938 2941 2943 2946 2950 2953 2956 2959 2962 2966 2968 2971 2973 2976 2978 2980 2983 2985 2987 2989 2990 2991 2993 2995 2996 2999 3000 3002 3003 3005 3006 3008 3010 3011 3012 3014 3015 3016 3017 3018 3018 3019 3020 3021 3021 3022
2822 2824 2827 2831 2835 2840 2845 2847 2847 2846 2850 2853 2856 2858 2861 2866 2869 2872 2874 2876 2877 2881 2884 2887 2890 2892 2895 2898 2900 2902 2905 2909 2912 2915 2918 2922 2925 2926 2929 2932 2935 2937 2940 2943 2947 2950 2953 2956 2959 2961 2964 2967 2970 2973 2975 2977 2979 2981 2984 2985 2987 2989 2990 2991 2993 2995 2997 2998 3000 3001 3003 3005 3007 3008 3010 3011 3012 3013 3014 3015 3015 3016 3017 3018 3018 3019
2816 2818 2821 2825 2828 2832 2838 2842 2842 2842 2844 2848 2851 2854 2857 2860 2863 2866 2866 2869 2872 2877 2881 2883 2886 2888 2890 2892 2894 2897 2901 2904 2907 2911 2916 2919 2921 2923 2925 2929 2931 2934 2936 2940 2943 2947 2950 2953 2955 2958 2961 2964 2966 2969 2971 2974 2976 2978 2980 2982 2984 2986 2987 2989 2990 2992 2993 2995 2996 2998 3000 3002 3004 3005 3006 3008 3009 3010 3011 3011 3012 3013 3014 3015 3016 3016
2810 2812 2815 2818 2822 2826 2831 2836 2837 2837 2838 2842 2846 2849 2851 2854 2856 2858 2861 2866 2871 2874 2876 2878 2881 2883 2885 2887 2891 2894 2897 2900 2903 2907 2912 2916 2917 2918 2921 2926 2928 2930 2932 2936 2940 2944 2946 2948 2951 2954 2957 2960 2963 2966 2968 2971 2974 2976 2977 2979 2981 2983 2984 2986 2987 2989 2990 2991 2993 2995 2996 2999 3000 3002 3003 3005 3006 3007 3008 3009 3010 3011 3011 3012 3013 3014
2804 2806 2808 2811 2816 2820 2825 2829 2831 2831 2833 2837 2841 2844 2846 2849 2851 2854 2857 2862 2866 2869 2871 2874 2876 2879 2881 2885 2888 2891 2892 2894 2898 2904 2909 2912 2913 2914 2917 2921 2924 2926 2928 2932 2936 2940 2942 2944 2946 2950 2953 2956 2959 2962 2965 2968 2971 2972 2975 2977 2979 2981 2981 2983 2984 2986 2986 2988 2989 2991 2993 2995 2997 2998 3000 3001 3002 3004 3005 3006 3007 3008 3009 3010 3011 3011
2798 2800 2801 2805 2809 2814 2819 2823 2825 2826 2828 2832 2835 2838 2841 2844 2846 2849 2853 2855 2859 2862 2866 2869 2872 2874 2877 2880 2882 2883 2884 2888 2894 2900 2904 2908 2909 2910 2913 2916 2919 2922 2925 2927 2931 2934 2936 2939 2942 2946 2949 2952 2955 2958 2961 2964 2966 2968 2971 2974 2976 2977 2978 2980 2981 2982 2983 2984 2986 2988 2990 2992 2993 2995 2996 2998 2999 3000 3001 3003 3004 3005 3006 3007 3008 3008
2793 2794 2796 2799 2803 2808 2813 2816 2819 2821 2824 2826 2829 2832 2835 2838 2841 2843 2846 2849 2853 2857 2862 2865 2867 2870 2872 2874 2876 2878 2881 2886 2892 2897 2900 2904 2906 2906 2909 2912 2916 2919 2921 2924 2927 2929 2932 2936 2939 2942 2945 2948 2951 2954 2957 2960 2962 2964 2966 2969 2971 2973 2975 2976 2978 2980 2981 2982 2983 2985 2987 2988 2990 2991 2993 2994 2996 2997 2999 3000 3001 3002 3003 3004 3005 3006
2787 2789 2791 2794 2798 2803 2806 2810 2812 2816 2818 2821 2823 2826 2829 2832 2834 2837 2841 2845 2849 2854 2857 2860 2863 2866 2868 2871 2873 2877 2881 2886 2890 2894 2897 2900 2902 2904 2906 2909 2913 2916 2919 2922 2925 2928 2931 2933 2936 2938 2941 2944 2946 2950 2953 2956 2958 2960 2962 2965 2967 2969 2971 2973 2974 2976 2977 2979 2981 2982 2984 2985 2986 2988 2990 2991 2993 2994 2996 2997 2998 2999 3001 3001 3002 3002
2782 2784 2786 2789 2793 2797 2801 2803 2806 2809 2812 2815 2818 2821 2823 2826 2830 2834 2838 2842 2846 2849 2853 2856 2859 2861 2864 2867 2871 2875 2879 2882 2886 2891 2894 2896 2898 2900 2903 2906 2910 2912 2916 2919 2923 2926 2928 2930 2932 2935 2937 2941 2944 2946 2949 2951 2954 2957 2959 2961 2963 2965 2967 2968 2970 2972 2973 2975 2977 2978 2980 2982 2983 2985 2986 2988 2989 2991 2992 2994 2995 2996 2997 2998 2999 2999
2778 2780 2782 2785 2788 2791 2795 2798 2801 2804 2807 2810 2813 2816 2819 2822 2826 2830 2834 2837 2841 2846 2849 2853 2855 2857 2860 2863 2867 2871 2875 2877 2882 2887 2891 2893 2895 2897 2901 2903 2906 2909 2912 2916 2919 2921 2923 2925 2927 2930 2933 2937 2940 2943 2945 2948 2951 2953 2956 2958 2960 2961 2963 2964 2966 2968 2970 2971 2973 2974 2976 2978 2980 2981 2983 2985 2986 2988 2989 2991 2992 2993 2994 2995 2996 2996
2773 2775 2777 2781 2784 2786 2790 2792 2795 2798 2802 2805 2808 2811 2815 2819 2823 2826 2830 2834 2838 2842 2846 2850 2852 2855 2857 2861 2864 2868 2871 2875 2879 2884 2887 2890 2892 2895 2898 2901 2904 2907 2910 2912 2915 2917 2919 2921 2923 2926 2929 2933 2936 2938 2941 2944 2947 2950 2953 2954 2956 2958 2959 2961 2963 2965 2966 2968 2969 2971 2972 2974 2976 2978 2980 2981 2983 2985 2986 2988 2989 2990 2991 2992 2992 2993
2769 2770 2773 2776 2779 2782 2785 2787 2790 2793 2797 2800 2804 2807 2811 2815 2819 2823 2827 2831 2835 2839 2843 2847 2850 2852 2854 2857 2861 2866 2869 2872 2876 2881 2885 2887 2890 2892 2895 2898 2901 2904 2907 2909 2911 2913 2916 2918 2921 2923 2926 2928 2930 2933 2936 2940 2944 2946 2948 2950 2951 2954 2956 2958 2960 2961 2963 2964 2966 2967 2969 2971 2973 2975 2977 2979 2980 2982 2983 2984 2986 2987 2988 2988 2989 2990
2764 2766 2768 2771 2775 2778 2781 2783 2786 2788 2791 2795 2799 2803 2807 2811 2815 2820 2825 2828 2832 2836 2840 2844 2846 2849 2851 2854 2858 2862 2866 2868 2872 2877 2881 2885 2887 2890 2892 2895 2898 2901 2903 2906 2908 2911 2912 2914 2916 2919 2921 2923 2926 2928 2931 2935 2938 2941 2943 2945 2947 2949 2951 2953 2956 2957 2959 2961 2963 2964 2966 2967 2969 2971 2973 2975 2977 2978 2979 2981 2982 2983 2984 2985 2986 2987
2761 2762 2764 2767 2771 2774 2778 2779 2781 2783 2787 2791 2795 2799 2804 2808 2813 2817 2822 2826 2830 2833 2837 2841 2843 2846 2848 2852 2856 2858 2861 2863 2867 2872 2877 2881 2884 2886 2889 2891 2894 2896 2900 2903 2906 2908 2910 2911 2912 2914 2916 2919 2922 2925 2928 2931 2934 2936 2939 2941 2944 2946 2948 2950 2951 2953 2956 2957 2959 2961 2962 2964 2966 2968 2970 2971 2973 2974 2976 2977 2979 2980 2981 2982 2983 2984
2757 2758 2760 2763 2766 2770 2774 2776 2777 2779 2784 2789 2793 2797 2802 2806 2811 2815 2819 2823 2826 2831 2834 2838 2841 2843 2846 2850 2852 2855 2857 2860 2864 2869 2872 2876 2880 2883 2886 2888 2890 2893 2897 2900 2902 2904 2906 2908 2910 2912 2914 2916 2918 2920 2923 2927 2930 2932 2934 2936 2939 2941 2943 2946 2948 2950 2952 2954 2955 2956 2958 2960 2962 2964 2966 2968 2970 2971 2973 2974 2976 2977 2978 2979 2980 2981
2753 2755 2757 2760 2763 2767 2771 2773 2775 2777 2781 2786 2790 2794 2798 2802 2806 2810 2815 2819 2823 2827 2831 2835 2838 2841 2845 2847 2849 2851 2854 2857 2861 2865 2869 2873 2876 2880 2883 2885 2887 2890 2893 2896 2898 2900 2903 2905 2907 2909 2911 2913 2915 2917 2920 2922 2925 2927 2929 2931 2932 2935 2938 2941 2944 2946 2948 2950 2951 2953 2955 2957 2959 2961 2963 2965 2967 2968 2970 2971 2972 2974 2975 2976 2976 2977
2749 2751 2753 2756 2760 2764 2768 2771 2773 2775 2778 2782 2786 2789 2792 2796 2801 2805 2810 2814 2819 2822 2826 2830 2833 2837 2841 2844 2846 2848 2851 2854 2858 2862 2866 2870 2873 2876 2879 2881 2883 2886 2888 2891 2893 2896 2898 2901 2902 2904 2906 2908 2911 2914 2916 2918 2921 2923 2925 2927 2929 2932 2935 2938 2940 2941 2944 2946 2948 2950 2952 2954 2956 2958 2960 2962 2964 2965 2966 2968 2969 2970 2971 2972 2973 2975
2745 2747 2750 2753 2756 2761 2766 2768 2770 2772 2775 2779 2782 2785 2789 2793 2797 2801 2806 2810 2814 2818 2821 2825 2828 2832 2836 2838 2841 2844 2847 2851 2854 2859 2863 2866 2870 2872 2875 2876 2879 2881 2884 2886 2889 2891 2894 2896 2898 2899 2901 2903 2906 2909 2911 2914 2917 2920 2922 2923 2925 2927 2930 2931 2934 2937 2940 2941 2944 2946 2949 2951 2953 2955 2957 2959 2961 2962 2963 2964 2966 2967 2968 2969 2970 2971
2741 2744 2747 2751 2754 2758 2762 2765 2766 2767 2771 2775 2779 2783 2786 2790 2794 2798 2803 2807 2811 2815 2818 2822 2826 2830 2833 2836 2838 2841 2843 2846 2851 2855 2859 2862 2866 2869 2871 2872 2875 2877 2880 2882 2884 2886 2889 2891 2893 2895 2897 2900 2902 2905 2908 2910 2913 2915 2917 2919 2921 2922 2923 2925 2928 2932 2935 2938 2941 2943 2946 2948 2950 2952 2954 2956 2957 2958 2959 2961 2962 2964 2965 2966 2967 2968
2738 2741 2743 2747 2752 2756 2759 2759 2761 2764 2768 2772 2776 2780 2784 2787 2791 2796 2800 2803 2807 2811 2815 2818 2822 2827 2830 2832 2834 2837 2840 2843 2846 2850 2855 2859 2862 2865 2866 2868 2871 2873 2876 2878 2880 2882 2884 2886 2888 2891 2893 2896 2899 2902 2904 2906 2909 2911 2913 2916 2918 2920 2921 2923 2926 2928 2931 2934 2937 2940 2942 2945 2947 2949 2951 2952 2953 2954 2956 2957 2959 2961 2962 2963 2964 2966
2735 2738 2741 2744 2749 2752 2752 2754 2757 2761 2766 2770 2774 2777 2781 2784 2788 2792 2796 2800 2804 2807 2810 2814 2818 2822 2824 2827 2830 2833 2836 2839 2843 2846 2850 2854 2857 2860 2862 2864 2866 2869 2871 2874 2876 2878 2879 2881 2883 2887 2891 2894 2897 2899 2900 2902 2905 2907 2910 2912 2914 2917 2919 2922 2924 2925 2927 2931 2934 2936 2939 2942 2944 2945 2946 2948 2949 2951 2953 2955 2956 2957 2959 2960 2961 2963
2732 2735 2738 2742 2746 2748 2749 2751 2754 2759 2763 2767 2771 2774 2778 2781 2785 2789 2792 2796 2800 2803 2807 2811 2815 2818 2820 2823 2826 2829 2832 2835 2838 2842 2846 2849 2852 2855 2857 2859 2862 2865 2867 2870 2872 2874 2876 2878 2880 2883 2886 2888 2891 2894 2896 2898 2900 2902 2904 2907 2910 2912 2915 2918 2920 2922 2925 2928 2931 2934 2936 2939 2941 2942 2943 2944 2946 2948 2950 2951 2953 2954 2956 2957 2958 2960
2730 2732 2736 2740 2744 2745 2746 2748 2751 2755 2760 2764 2768 2771 2775 2778 2782 2786 2789 2793 2796 2800 2804 2807 2811 2813 2816 2819 2822 2825 2828 2831 2835 2838 2841 2844 2847 2849 2852 2854 2857 2860 2863 2865 2867 2869 2871 2874 2877 2879 2881 2882 2884 2887 2890 2893 2896 2897 2900 2902 2906 2909 2912 2914 2917 2920 2923 2925 2928 2931 2933 2935 2936 2938 2940 2941 2943 2945 2946 2948 2950 2951 2953 2954 2956 2957
2727 2730 2733 2738 2742 2743 2743 2745 2748 2752 2756 2761 2765 2769 2773 2776 2780 2783 2786 2790 2793 2796 2800 2803 2806 2809 2813 2816 2819 2822 2825 2829 2831 2834 2837 2840 2842 2845 2847 2850 2853 2856 2859 2861 2863 2865 2867 2869 2872 2875 2877 2879 2880 2882 2885 2888 2891 2893 2896 2899 2903 2906 2909 2912 2914 2917 2920 2922 2926 2928 2931 2932 2933 2935 2937 2939 2940 2942 2943 2945 2946 2948 2950 2951 2953 2955
2725 2728 2731 2734 2739 2742 2741 2743 2746 2749 2753 2758 2762 2766 2770 2774 2777 2781 2784 2788 2791 2794 2796 2799 2803 2806 2809 2812 2815 2818 2822 2825 2828 2831 2833 2836 2838 2841 2843 2846 2849 2852 2855 2857 2859 2861 2863 2865 2867 2870 2873 2876 2878 2879 2880 2883 2886 2890 2894 2897 2901 2904 2906 2909 2911 2914 2917 2920 2922 2925 2927 2929 2931 2932 2934 2936 2937 2939 2941 2942 2944 2946 2947 2949 2951 2952
2723 2726 2729 2732 2736 2739 2741 2742 2743 2746 2751 2755 2759 2763 2767 2771 2775 2778 2782 2785 2788 2791 2794 2797 2801 2803 2806 2809 2812 2815 2818 2821 2823 2826 2829 2831 2834 2837 2840 2842 2845 2848 2851 2853 2855 2856 2858 2861 2864 2867 2870 2872 2874 2876 2876 2878 2881 2886 2891 2895 2898 2901 2903 2906 2908 2911 2914 2917 2920 2922 2924 2926 2927 2929 2931 2932 2934 2936 2937 2939 2941 2943 2945 2946 2948 2950